Simultaneous Nadir Overpasses (SNOs) Predictions

Prediction of SNOs between AQUA and NPP Satellite Orbit:

Table of predicted SNOs for the next 14.0 days since TLE Epoch: 7/4/2020
Index Date (AQUA) Time (AQUA) Lat,Lon (AQUA) SZA (AQUA ) Date (NPP) Time (NPP) Lat,Lon (NPP) SZA (NPP ) Distance(km) Time Diff (sec)
1 07/06/2020 06:21:51 -75.55, 142.30 104.17 07/06/2020 06:21:22 -75.55, 142.27 104.14 1.01 29
2 07/06/2020 07:10:52 76.74, -46.29 74.43 07/06/2020 07:11:40 76.74, -46.24 74.37 1.59 48
3 07/08/2020 21:52:33 63.48, 72.50 88.94 07/08/2020 21:51:20 63.65, 71.38 89.16 58.53 73
4 07/08/2020 22:38:07 -76.18, -99.92 104.60 07/08/2020 22:38:05 -76.19, -99.83 104.62 2.41 2
5 07/08/2020 23:25:50 80.44, 90.86 69.49 07/08/2020 23:27:03 80.21, 91.85 69.33 31.16 73
6 07/11/2020 14:05:25 75.35,-154.13 76.73 07/11/2020 14:04:34 75.36,-154.09 76.76 1.21 51
7 07/11/2020 14:54:32 -76.36, 16.56 104.46 07/11/2020 14:54:58 -76.37, 16.57 104.49 0.25 26
8 07/14/2020 06:21:49 75.59, -37.58 76.85 07/14/2020 06:21:26 75.58, -37.62 76.88 1.34 23
9 07/14/2020 07:10:56 -76.59, 133.20 104.34 07/14/2020 07:11:50 -76.58, 133.14 104.36 1.70 54
10 07/16/2020 21:49:02 -75.05, -90.82 102.10 07/16/2020 21:47:49 -75.06, -90.76 102.06 1.73 73
11 07/16/2020 22:38:04 76.21, 80.20 76.56 07/16/2020 22:38:08 76.22, 80.28 76.53 2.26 4
